Location: A�t Bou Chrif
(32.7193°N, 5.2385°W)
Time: 04:03:03
(UTC+00:00)

CZ-2C R/B - Pass Details

Date: 08 August 2020
Orbit: 639 x 705 km, 98.4° (Epoch: 20 September)

Event Time Altitude Azimuth Distance (km) Brightness Sun altitude
Rises 19:54:12 0° 23° (NNE) 3,028 7.1 -8.9°
Reaches altitude 10° 19:56:38 10° 33° (NNE) 2,099 6.2 -9.4°
Maximum altitude 20:00:48 34° 98° (E) 1,085 4.3 -10.2°
Drops below altitude 10° 20:04:52 10° 164° (SSE) 2,051 5.8 -10.9°
Sets 20:07:12 0° 173° (S) 2,949 6.7 -11.4°
